Location: Barnston
(51.8500°N, 0.4000°E)
Time: 04:13:23
(UTC+00:00)

NOSS 3-4 (C) - Pass Details

Date: 26 September 2023
Orbit: 824 x 1389 km, 63.4° (Epoch: 23 November)

Event Time Altitude Azimuth Distance (km) Brightness Sun altitude
Exits shadow 02:10:59 65° 7° (N) 990 3.6 -31.3°
Drops below altitude 10° 02:16:34 10° 45° (NE) 2,732 6.7 -30.7°
Sets 02:19:20 0° 47° (NE) 3,767 7.8 -30.4°
